Showing default

NINGXIA-1 4, 44782

Orbit data source: Space-Track

NINGXIA-1 4, 44782 is a Chinese payload satellite in LEO that was launched on Wed, 13 Nov 2019 UTC via a CHANG ZHENG 6 launch vehicle from the Taiyaun Space Center, China (TSC). Payload-class satellites include a variety of spacecraft equipped with specific instruments for various scientific and technological missions. These include communications satellites like Starlink; space stations such as the ISS; scientific satellites like the Hubble; Earth observation satellites from companies like Planet Labs, Umbra, and HawkEye 360; GPS; miniature CubeSats for education and research; and military/defense satellites.

Loading next visibility...
Identifier
44782, 2019-076D
Orbit
LEO
Last TLE update
6 hours ago
Origin
Manufacturer
DFH
Mission
Operational Commercial Sigint
Bus & Motor
NX-1, Unknown motor
Mass
~100 kg wet, ~100 kg dry
Launch date (UTC)
2019-11-13 (5 years ago)
Launch vehicle
CHANG ZHENG 6
Launch site
Taiyaun Space Center, China (TSC)
Object type
Payload
Rocket body
Debris
Shape & HBR
Box + 2 Pan, Unknown HBR
Radar Cross Section
0.166 m², Medium (>0.1 m² and < 1m²)

Expand to show TLE details & history

TLE from 6 hours ago
0 NINGXIA-1 4
1 44782U 19076D   25129.16422754 -.00000049  00000-0  52597-4 0  9994
2 44782  45.0077 185.1389 0012159   7.2746 352.8262 14.01949702281162
Epoch: 2025-05-09T03:56Z
Definitive object data (Epoch: 2025-05-09T03:56:29.259Z)
Latitude
-0.00006°
Longitude
-101.20738°
Altitude
878.288 km
Speed
7.419 km/s
True Right ascension
12h 20m 33s
True Declination
0° 00' 00"
Sunlit
Object was in full shadow at TLE epoch
Visualization TLE readout
Latitude
40.49839°
Longitude
19.59913°
Altitude
892.245 km
Speed
7.41 km/s
Apparent Right ascension
00h 26m 15s
Apparent Declination
9° 59' 13"
Sunlit
Object is in daylight
Visualization observer readout
Local Sidereal Time
17:46:02
Azimuth
75.913° E
Elevation
-1.18°
Doppler factor
1
Orbital elements
Apogee altitude
897.406 km
Perigee altitude
879.735 km
Semi-major axis
7,266.707 km
Eccentricity
0.0012159
Inclination
45.0077°
RAAN
185.1389°
Arg. of periapsis
7.2746°
True anomaly
352.80877°
Mean anomaly
352.8262°
Eccentric anomaly
352.81749°
Mean motion
3.50378 °/min
BSTAR
0.000052597
Orbital period
102.75 mins
Loading maneuver chart data...
Loading SW <> Apogee altitude chart data...
Loading historical data...
Loading historical data...
Loading historical data...
Loading historical data...
Loading historical data...
Loading historical data...
Loading historical data...
Other satellites on launch #76 in the year 2019 (2019-11-13 UTC)

NINGXIA-1 4 Visibility forecast

Observer location: undefined°, undefined°

Span
Click to sort rows by Start time (UTC) header in descending order
Start Az.
Max El. time (UTC)
Max El. Az.
Max El.
End time (UTC)
End Az.
11 mins2025-05-09 11:10:41.013Z292.657° NW2025-05-09 11:16:41.013Z26.738° NE41.232°2025-05-09 11:21:41.013Z92.601° ESE
10 mins2025-05-09 12:59:41.013Z287.53° WNW2025-05-09 13:04:41.013Z205.804° SW40.732°2025-05-09 13:09:41.013Z135.46° SSE
5 mins2025-05-09 14:49:41.013Z250.167° W2025-05-09 14:51:41.013Z228.367° WSW14.915°2025-05-09 14:54:41.013Z196.809° SSW
8 mins2025-05-10 05:45:41.013Z189.84° SSW2025-05-10 05:49:41.013Z133.971° SE26.589°2025-05-10 05:53:41.013Z85.028° E
10 mins2025-05-10 07:32:41.013Z246.818° WSW2025-05-10 07:36:41.013Z260.056° W44.581°2025-05-10 07:42:41.013Z66.57° ENE
10 mins2025-05-10 09:20:41.013Z282.494° WNW2025-05-10 09:25:41.013Z3.75° NNE38.63°2025-05-10 09:30:41.013Z71.43° E
|